VLG4ZR LEPA-LEMD

Flight info

Callsign VLG4ZR
Flight time 0h 59m
Altitude 31000
Route EPAMA4A EPAMA N733 PRADO PRADO3D
Aircraft A320/M-SDE3FGHIRWY/LB1

Departure

Time 2026-05-06 10:38
Airport Palma de Mallorca Airport (LEPA)

Arrival

Time 2026-05-06 11:37
Airport Adolfo Suárez Madrid–Barajas Airport (LEMD)
Time Latitude Longitude Altitude Speed Heading
2026-05-06 10:10 39.54945 2.73766 38 ft 0 kts 239°
2026-05-06 10:27 39.54945 2.73767 38 ft 1 kts 239°
2026-05-06 10:27 39.54957 2.73793 38 ft 4 kts 241°
2026-05-06 10:27 39.54970 2.73824 36 ft 4 kts 245°
2026-05-06 10:28 39.54980 2.73856 37 ft 4 kts 255°
2026-05-06 10:28 39.54983 2.73889 37 ft 4 kts 300°
2026-05-06 10:28 39.54978 2.73898 35 ft 0 kts 329°
2026-05-06 10:31 39.54980 2.73897 35 ft 2 kts 329°
2026-05-06 10:31 39.55003 2.73879 36 ft 4 kts 329°
2026-05-06 10:31 39.55025 2.73861 38 ft 3 kts 329°
2026-05-06 10:32 39.55044 2.73847 37 ft 4 kts 329°
2026-05-06 10:32 39.55079 2.73819 38 ft 8 kts 329°
2026-05-06 10:32 39.55132 2.73778 38 ft 8 kts 329°
2026-05-06 10:32 39.55177 2.73812 38 ft 7 kts 62°
2026-05-06 10:33 39.55227 2.73810 38 ft 10 kts 328°
2026-05-06 10:33 39.55299 2.73753 38 ft 14 kts 328°
2026-05-06 10:33 39.55397 2.73676 38 ft 19 kts 328°
2026-05-06 10:33 39.55519 2.73580 37 ft 23 kts 328°
2026-05-06 10:34 39.55604 2.73513 37 ft 11 kts 329°
2026-05-06 10:34 39.55675 2.73544 38 ft 14 kts 57°
2026-05-06 10:34 39.55734 2.73668 38 ft 18 kts 58°
2026-05-06 10:34 39.55801 2.73812 38 ft 12 kts 58°
2026-05-06 10:35 39.55832 2.73876 38 ft 3 kts 58°
2026-05-06 10:35 39.55842 2.73892 38 ft 0 kts 47°
2026-05-06 10:35 39.55850 2.73898 38 ft 1 kts 31°
2026-05-06 10:36 39.55863 2.73905 38 ft 3 kts 17°
2026-05-06 10:36 39.55883 2.73901 38 ft 4 kts 345°
2026-05-06 10:36 39.55929 2.73868 38 ft 11 kts 328°
2026-05-06 10:36 39.55987 2.73804 38 ft 13 kts 290°
2026-05-06 10:37 39.55948 2.73677 37 ft 19 kts 241°
2026-05-06 10:37 39.55877 2.73528 37 ft 48 kts 238°
2026-05-06 10:37 39.55578 2.72893 38 ft 114 kts 238°
2026-05-06 10:37 39.55070 2.71815 45 ft 164 kts 239°
2026-05-06 10:38 39.54485 2.70505 571 ft 172 kts 240°
2026-05-06 10:38 39.53670 2.68732 1503 ft 174 kts 236°
2026-05-06 10:38 39.53232 2.67842 1979 ft 173 kts 237°
2026-05-06 10:38 39.52592 2.66528 2670 ft 173 kts 237°
2026-05-06 10:39 39.51938 2.65195 3271 ft 177 kts 235°
2026-05-06 10:39 39.51238 2.63848 3833 ft 183 kts 234°
2026-05-06 10:39 39.50468 2.62460 4246 ft 198 kts 233°
2026-05-06 10:39 39.49632 2.60921 4601 ft 218 kts 236°
2026-05-06 10:40 39.48826 2.59313 5538 ft 210 kts 237°
2026-05-06 10:40 39.48014 2.57721 6238 ft 217 kts 236°
2026-05-06 10:40 39.47132 2.56099 6875 ft 223 kts 234°
2026-05-06 10:40 39.46206 2.54506 7701 ft 222 kts 233°
2026-05-06 10:41 39.45423 2.52748 8358 ft 228 kts 250°
2026-05-06 10:41 39.45140 2.50741 9198 ft 228 kts 269°
2026-05-06 10:41 39.45330 2.48695 9934 ft 236 kts 279°
2026-05-06 10:41 39.45705 2.46491 10138 ft 264 kts 281°
2026-05-06 10:42 39.46207 2.44119 10359 ft 290 kts 284°
2026-05-06 10:42 39.46785 2.41514 10630 ft 311 kts 283°
2026-05-06 10:42 39.47320 2.38756 11239 ft 319 kts 281°
2026-05-06 10:42 39.47794 2.35935 12010 ft 322 kts 279°
2026-05-06 10:43 39.48215 2.33085 12801 ft 324 kts 277°
2026-05-06 10:43 39.48604 2.30207 13594 ft 326 kts 277°
2026-05-06 10:43 39.48979 2.27311 14298 ft 328 kts 276°
2026-05-06 10:44 39.49727 2.21445 15647 ft 332 kts 276°
2026-05-06 10:44 39.50106 2.18492 16321 ft 334 kts 276°
2026-05-06 10:44 39.50490 2.15510 16989 ft 336 kts 276°
2026-05-06 10:44 39.50878 2.12520 17671 ft 339 kts 276°
2026-05-06 10:45 39.51270 2.09502 18324 ft 341 kts 276°
2026-05-06 10:45 39.51664 2.06464 18888 ft 343 kts 275°
2026-05-06 10:45 39.52057 2.03413 19451 ft 345 kts 275°
2026-05-06 10:45 39.52454 2.00337 20023 ft 347 kts 275°
2026-05-06 10:46 39.52854 1.97251 20584 ft 349 kts 275°
2026-05-06 10:46 39.53257 1.94150 21126 ft 351 kts 275°
2026-05-06 10:46 39.53661 1.91024 21670 ft 353 kts 275°
2026-05-06 10:46 39.54064 1.87883 22197 ft 355 kts 275°
2026-05-06 10:47 39.54465 1.84722 22726 ft 357 kts 275°
2026-05-06 10:47 39.54869 1.81540 23237 ft 359 kts 275°
2026-05-06 10:47 39.55276 1.78337 23703 ft 361 kts 275°
2026-05-06 10:47 39.55682 1.75123 24118 ft 363 kts 275°
2026-05-06 10:48 39.56094 1.71887 24539 ft 364 kts 274°
2026-05-06 10:48 39.56504 1.68636 24966 ft 366 kts 274°
2026-05-06 10:48 39.56914 1.65380 25378 ft 367 kts 274°
2026-05-06 10:48 39.57325 1.62109 25794 ft 369 kts 274°
2026-05-06 10:49 39.57734 1.58813 26204 ft 370 kts 274°
2026-05-06 10:49 39.58142 1.55522 26609 ft 371 kts 274°
2026-05-06 10:49 39.58555 1.52209 27005 ft 373 kts 274°
2026-05-06 10:49 39.58970 1.48884 27402 ft 374 kts 274°
2026-05-06 10:50 39.59388 1.45547 27799 ft 376 kts 274°
2026-05-06 10:50 39.59805 1.42191 28190 ft 377 kts 274°
2026-05-06 10:50 39.60171 1.38832 28578 ft 376 kts 269°
2026-05-06 10:50 39.60188 1.35457 28952 ft 373 kts 262°
2026-05-06 10:51 39.59999 1.32099 29324 ft 374 kts 262°
2026-05-06 10:51 39.59809 1.28774 29689 ft 376 kts 262°
2026-05-06 10:51 39.59615 1.25389 30039 ft 377 kts 262°
2026-05-06 10:51 39.59420 1.22000 30324 ft 378 kts 262°
2026-05-06 10:52 39.59225 1.18592 30596 ft 380 kts 262°
2026-05-06 10:52 39.59031 1.15164 30859 ft 382 kts 262°
2026-05-06 10:52 39.58838 1.11738 30960 ft 378 kts 262°
2026-05-06 10:52 39.58654 1.08421 30973 ft 361 kts 261°
2026-05-06 10:53 39.58474 1.05216 30976 ft 353 kts 261°
2026-05-06 10:53 39.58102 0.98907 30980 ft 350 kts 261°
2026-05-06 10:54 39.57724 0.92632 30984 ft 349 kts 261°
2026-05-06 10:54 39.57355 0.86357 30987 ft 349 kts 261°
2026-05-06 10:55 39.56984 0.80086 30983 ft 349 kts 261°
2026-05-06 10:55 39.56608 0.73822 30989 ft 348 kts 261°
2026-05-06 10:56 39.56225 0.67563 30986 ft 348 kts 261°
2026-05-06 10:56 39.55841 0.61315 30987 ft 348 kts 261°
2026-05-06 10:57 39.55457 0.55071 30985 ft 347 kts 261°
2026-05-06 10:57 39.55070 0.48831 30985 ft 347 kts 261°
2026-05-06 10:58 39.54677 0.42605 30987 ft 347 kts 261°
2026-05-06 10:58 39.54282 0.36430 30981 ft 346 kts 261°
2026-05-06 10:59 39.53879 0.30217 30976 ft 346 kts 261°
2026-05-06 10:59 39.53479 0.24013 30978 ft 346 kts 261°
2026-05-06 11:00 39.53077 0.17806 30975 ft 345 kts 260°
2026-05-06 11:00 39.52673 0.11617 30974 ft 345 kts 261°
2026-05-06 11:01 39.52265 0.05428 30967 ft 345 kts 260°
2026-05-06 11:01 39.51852 -0.00747 30978 ft 344 kts 260°
2026-05-06 11:02 39.51436 -0.06924 30974 ft 344 kts 260°
2026-05-06 11:02 39.51021 -0.13091 30978 ft 344 kts 260°
2026-05-06 11:03 39.50598 -0.19255 30976 ft 344 kts 260°
2026-05-06 11:03 39.50167 -0.25421 30980 ft 343 kts 260°
2026-05-06 11:04 39.49742 -0.31574 30983 ft 343 kts 260°
2026-05-06 11:04 39.49313 -0.37724 30983 ft 343 kts 260°
2026-05-06 11:05 39.48881 -0.43867 30988 ft 343 kts 261°
2026-05-06 11:05 39.49512 -0.50051 30987 ft 359 kts 282°
2026-05-06 11:06 39.51895 -0.55830 30989 ft 368 kts 290°
2026-05-06 11:06 39.54446 -0.61578 30989 ft 368 kts 290°
2026-05-06 11:07 39.56987 -0.67333 30988 ft 368 kts 290°
2026-05-06 11:07 39.59527 -0.73094 30990 ft 368 kts 290°
2026-05-06 11:08 39.62056 -0.78845 30996 ft 367 kts 290°
2026-05-06 11:08 39.64584 -0.84598 31023 ft 367 kts 290°
2026-05-06 11:09 39.67104 -0.90348 31032 ft 366 kts 290°
2026-05-06 11:09 39.69612 -0.96100 31040 ft 366 kts 290°
2026-05-06 11:10 39.72123 -1.01862 31042 ft 366 kts 290°
2026-05-06 11:10 39.74622 -1.07615 31046 ft 366 kts 290°
2026-05-06 11:11 39.77114 -1.13332 31047 ft 366 kts 290°
2026-05-06 11:11 39.79625 -1.19078 31040 ft 366 kts 290°
2026-05-06 11:12 39.82134 -1.24839 31039 ft 366 kts 290°
2026-05-06 11:12 39.84629 -1.30597 31019 ft 366 kts 290°
2026-05-06 11:13 39.87129 -1.36380 31016 ft 366 kts 290°
2026-05-06 11:13 39.89625 -1.42168 31012 ft 367 kts 290°
2026-05-06 11:13 39.90880 -1.45084 30526 ft 372 kts 290°
2026-05-06 11:14 39.92142 -1.48023 29913 ft 371 kts 290°
2026-05-06 11:14 39.93399 -1.50944 29411 ft 366 kts 290°
2026-05-06 11:14 39.94636 -1.53813 28953 ft 360 kts 290°
2026-05-06 11:14 39.95853 -1.56639 28517 ft 354 kts 290°
2026-05-06 11:15 39.97045 -1.59415 28074 ft 349 kts 290°
2026-05-06 11:15 39.98220 -1.62155 27643 ft 344 kts 290°
2026-05-06 11:15 39.99375 -1.64857 27223 ft 339 kts 290°
2026-05-06 11:15 40.00513 -1.67519 26796 ft 334 kts 290°
2026-05-06 11:16 40.01637 -1.70146 26366 ft 330 kts 290°
2026-05-06 11:16 40.02748 -1.72748 25945 ft 326 kts 291°
2026-05-06 11:16 40.03836 -1.75294 25459 ft 325 kts 291°
2026-05-06 11:16 40.04957 -1.77936 24715 ft 332 kts 291°
2026-05-06 11:17 40.06077 -1.80581 24209 ft 332 kts 291°
2026-05-06 11:17 40.07190 -1.83198 23836 ft 328 kts 291°
2026-05-06 11:17 40.08293 -1.85790 23404 ft 325 kts 291°
2026-05-06 11:17 40.09372 -1.88329 22959 ft 322 kts 291°
2026-05-06 11:18 40.10467 -1.90901 22557 ft 318 kts 291°
2026-05-06 11:18 40.11519 -1.93375 22166 ft 314 kts 291°
2026-05-06 11:18 40.12571 -1.95856 21774 ft 311 kts 292°
2026-05-06 11:18 40.13615 -1.98321 21380 ft 308 kts 292°
2026-05-06 11:19 40.14645 -2.00757 21007 ft 305 kts 292°
2026-05-06 11:19 40.15671 -2.03189 20673 ft 305 kts 292°
2026-05-06 11:19 40.16691 -2.05610 20331 ft 305 kts 292°
2026-05-06 11:19 40.17717 -2.08037 20010 ft 304 kts 292°
2026-05-06 11:20 40.18740 -2.10453 19687 ft 304 kts 293°
2026-05-06 11:20 40.19759 -2.12866 19351 ft 303 kts 293°
2026-05-06 11:20 40.20781 -2.15279 19015 ft 302 kts 294°
2026-05-06 11:20 40.21798 -2.17680 18685 ft 302 kts 294°
2026-05-06 11:21 40.22811 -2.20083 18358 ft 301 kts 294°
2026-05-06 11:21 40.23820 -2.22483 18005 ft 301 kts 294°
2026-05-06 11:21 40.24825 -2.24870 17673 ft 300 kts 295°
2026-05-06 11:21 40.25730 -2.27315 17341 ft 296 kts 286°
2026-05-06 11:22 40.26179 -2.29928 17018 ft 293 kts 273°
2026-05-06 11:22 40.26207 -2.32588 16699 ft 292 kts 268°
2026-05-06 11:22 40.26189 -2.35244 16380 ft 292 kts 268°
2026-05-06 11:22 40.26176 -2.37907 16061 ft 293 kts 269°
2026-05-06 11:23 40.26162 -2.40573 15729 ft 293 kts 269°
2026-05-06 11:23 40.26150 -2.43239 15418 ft 293 kts 269°
2026-05-06 11:23 40.26136 -2.45898 15099 ft 293 kts 269°
2026-05-06 11:23 40.26121 -2.48564 14784 ft 293 kts 269°
2026-05-06 11:24 40.26105 -2.51230 14464 ft 293 kts 269°
2026-05-06 11:24 40.26089 -2.53887 14232 ft 289 kts 269°
2026-05-06 11:24 40.26072 -2.56488 14121 ft 285 kts 269°
2026-05-06 11:24 40.26054 -2.59112 14033 ft 291 kts 269°
2026-05-06 11:25 40.26037 -2.61771 13776 ft 293 kts 269°
2026-05-06 11:25 40.26028 -2.64432 13425 ft 292 kts 269°
2026-05-06 11:25 40.26026 -2.67091 13079 ft 291 kts 270°
2026-05-06 11:25 40.26026 -2.69737 12735 ft 290 kts 269°
2026-05-06 11:26 40.26024 -2.72363 12396 ft 289 kts 269°
2026-05-06 11:26 40.26019 -2.74986 12061 ft 287 kts 269°
2026-05-06 11:26 40.26009 -2.77594 11727 ft 286 kts 269°
2026-05-06 11:26 40.25996 -2.80191 11405 ft 285 kts 269°
2026-05-06 11:27 40.25985 -2.82770 11106 ft 284 kts 269°
2026-05-06 11:27 40.25973 -2.85317 10810 ft 282 kts 269°
2026-05-06 11:27 40.25961 -2.87878 10515 ft 281 kts 269°
2026-05-06 11:27 40.25950 -2.90434 10221 ft 280 kts 269°
2026-05-06 11:28 40.25938 -2.92977 9930 ft 279 kts 269°
2026-05-06 11:28 40.25925 -2.95510 9617 ft 278 kts 269°
2026-05-06 11:28 40.25910 -2.98031 9296 ft 276 kts 269°
2026-05-06 11:28 40.25901 -2.99729 9079 ft 275 kts 269°
2026-05-06 11:29 40.25880 -3.03034 8662 ft 274 kts 269°
2026-05-06 11:29 40.25868 -3.04686 8457 ft 273 kts 269°
2026-05-06 11:29 40.25850 -3.07167 8147 ft 272 kts 269°
2026-05-06 11:29 40.25836 -3.09640 7839 ft 271 kts 269°
2026-05-06 11:30 40.25822 -3.12103 7540 ft 270 kts 269°
2026-05-06 11:30 40.25933 -3.14548 7230 ft 269 kts 279°
2026-05-06 11:30 40.26258 -3.16962 7053 ft 261 kts 279°
2026-05-06 11:30 40.26560 -3.19230 6926 ft 251 kts 279°
2026-05-06 11:31 40.26853 -3.21431 6802 ft 241 kts 279°
2026-05-06 11:31 40.27134 -3.23559 6682 ft 236 kts 279°
2026-05-06 11:31 40.27411 -3.25673 6553 ft 235 kts 278°
2026-05-06 11:31 40.27687 -3.27776 6441 ft 234 kts 279°
2026-05-06 11:32 40.27963 -3.29883 6274 ft 235 kts 278°
2026-05-06 11:32 40.28327 -3.31961 6060 ft 234 kts 290°
2026-05-06 11:32 40.29122 -3.33809 5821 ft 234 kts 308°
2026-05-06 11:32 40.30165 -3.35393 5720 ft 227 kts 309°
2026-05-06 11:33 40.31191 -3.36957 5627 ft 226 kts 311°
2026-05-06 11:33 40.32326 -3.38378 5547 ft 227 kts 318°
2026-05-06 11:33 40.33561 -3.39671 5328 ft 227 kts 321°
2026-05-06 11:33 40.34819 -3.40936 5040 ft 228 kts 321°
2026-05-06 11:34 40.36078 -3.42204 4745 ft 229 kts 321°
2026-05-06 11:34 40.37342 -3.43480 4421 ft 228 kts 321°
2026-05-06 11:34 40.38596 -3.44747 4124 ft 228 kts 321°
2026-05-06 11:34 40.39838 -3.46003 3838 ft 221 kts 321°
2026-05-06 11:35 40.40994 -3.47171 3535 ft 199 kts 321°
2026-05-06 11:35 40.42032 -3.48221 3290 ft 179 kts 321°
2026-05-06 11:35 40.42958 -3.49159 3044 ft 159 kts 322°
2026-05-06 11:35 40.43803 -3.50016 2816 ft 149 kts 323°
2026-05-06 11:36 40.44614 -3.50838 2617 ft 147 kts 323°
2026-05-06 11:36 40.45415 -3.51650 2419 ft 144 kts 321°
2026-05-06 11:36 40.46202 -3.52447 2228 ft 142 kts 320°
2026-05-06 11:36 40.46982 -3.53238 2041 ft 141 kts 320°
2026-05-06 11:37 40.47748 -3.54020 1923 ft 132 kts 321°
2026-05-06 11:37 40.48265 -3.54551 1934 ft 68 kts 323°
2026-05-06 11:37 40.48603 -3.54891 1945 ft 56 kts 322°
2026-05-06 11:37 40.48789 -3.55175 1954 ft 39 kts 294°
2026-05-06 11:38 40.48846 -3.55355 1953 ft 13 kts 292°
2026-05-06 11:38 40.48855 -3.55385 1955 ft 0 kts 292°
2026-05-06 11:38 40.48855 -3.55386 1954 ft 1 kts 292°
2026-05-06 11:39 40.48871 -3.55432 1954 ft 5 kts 299°